Theta_e
325 329 332 331 331 330 330 330 331 330 328 328 330 329 328 327 327 326 328 333 335 335 335 336 336 335 335 334 334 334 334 333 333 332 332 332 330 329 325 320 314 312 311 311
322 325 324 326 330 331 332 332 332 328 326 328 328 330 328 327 327 326 325 330 335 335 335 334 332 333 333 334 333 333 333 334 333 334 334 332 327 318 314 311 308 306 307 307
322 323 324 325 328 333 332 333 332 332 328 326 329 332 329 327 327 325 322 325 334 335 331 324 316 314 316 316 319 319 322 325 329 330 331 326 315 310 309 304 303 302 303 302
321 320 323 325 328 329 333 329 327 327 331 333 330 334 331 329 328 323 322 325 333 326 320 316 313 309 308 308 311 312 313 315 318 323 320 314 308 305 304 301 298 295 296 295
319 320 322 322 325 324 327 328 328 327 329 329 331 333 330 329 330 322 321 328 324 318 315 311 307 304 303 304 303 303 304 305 307 308 309 305 302 301 299 295 294 293 293 293
317 316 319 322 323 322 325 324 324 326 326 330 330 330 330 331 329 321 323 321 318 313 308 305 302 300 298 298 297 298 299 299 300 301 300 298 296 295 295 294 294 294 294 295
315 315 318 319 324 323 325 325 327 328 327 328 324 331 329 326 323 319 319 316 313 308 304 302 299 298 297 296 296 296 298 299 301 303 303 304 303 303 302 300 297 295 291 289
313 314 318 319 321 323 325 324 325 328 326 328 321 329 326 316 315 315 314 312 309 305 302 300 299 298 298 298 300 304 306 304 307 306 305 305 304 304 300 297 295 292 290 288
314 316 317 317 318 319 323 325 320 319 314 323 326 326 318 315 313 313 312 311 305 302 301 300 301 300 299 299 300 301 302 302 304 305 303 302 298 295 294 291 289 288 288 287
317 318 314 316 318 317 320 318 322 321 321 325 326 326 325 317 314 312 311 308 304 303 304 303 301 298 297 298 299 300 302 302 297 293 291 289 289 290 289 287 287 286 286 285
315 317 316 316 318 320 320 321 321 321 322 323 324 322 309 317 313 311 310 307 305 305 305 302 299 297 295 296 296 294 291 290 289 289 288 288 288 287 287 286 286 285 284 284
314 316 317 316 311 311 314 318 320 322 323 318 316 319 307 310 312 310 309 307 306 305 303 300 296 294 294 293 292 291 289 288 288 287 287 287 286 286 286 285 284 284 283 283
313 314 315 314 313 312 316 316 317 319 316 319 321 318 307 308 311 310 310 308 306 304 301 298 295 294 292 291 290 288 288 287 286 286 286 286 285 285 284 283 283 283 283 282
312 313 315 314 316 313 315 315 315 318 317 317 315 313 310 307 312 310 309 307 305 302 300 297 294 292 291 290 288 287 287 286 286 286 285 285 284 283 283 283 282 282 282 282
311 314 312 311 313 314 314 314 317 318 317 319 317 316 313 309 308 310 309 307 304 302 300 297 294 292 290 288 287 286 286 285 285 285 284 283 283 283 282 282 282 281 281 281
309 313 311 308 310 312 315 315 314 316 316 317 316 317 313 309 307 310 309 307 305 303 300 297 293 290 289 288 286 286 285 284 284 284 283 282 282 282 281 281 281 280 280 280
310 308 308 310 308 311 304 311 314 314 314 315 317 315 307 309 311 311 309 307 305 303 300 296 292 290 288 287 286 285 284 284 284 283 282 281 281 281 281 280 280 280 280 279
308 309 311 306 305 308 309 304 308 313 314 313 314 309 307 308 310 310 308 306 306 304 299 294 290 289 288 287 286 285 284 283 282 282 281 281 281 280 280 280 279 279 279 278
307 309 311 310 311 307 310 304 309 310 311 310 312 310 307 305 305 307 306 305 304 302 297 292 289 288 287 286 285 284 283 282 282 281 281 280 279 279 279 279 278 278 277 277
304 307 311 305 308 303 306 302 304 308 307 302 304 309 305 304 305 303 303 303 300 296 293 290 289 287 286 285 284 283 283 282 281 280 280 279 279 279 278 278 278 277 277 276
308 308 306 304 307 304 302 301 303 304 307 300 300 302 304 304 303 303 301 297 296 293 290 289 287 285 285 284 283 283 282 281 280 279 279 279 278 278 278 278 277 276 276 275
303 304 306 304 311 305 298 300 305 303 299 298 298 299 304 300 301 300 296 293 291 289 288 286 285 284 284 283 283 282 281 280 280 279 279 279 278 278 277 277 276 275 275 274
303 304 304 305 305 299 298 302 299 298 298 298 298 298 299 297 297 295 293 290 288 287 286 285 283 282 282 282 282 282 280 280 280 279 278 278 277 277 277 275 274 274 274 274
295 294 297 298 301 299 297 296 296 296 297 296 297 297 297 296 294 293 290 288 287 285 284 283 283 281 280 281 281 281 281 280 279 278 277 277 277 276 275 274 273 273 273 273
294 292 292 294 296 295 294 293 295 294 293 294 295 296 296 294 292 290 288 285 284 283 284 284 282 281 281 280 280 280 280 279 278 277 277 276 275 275 274 273 273 272 272 272
290 291 293 294 295 297 295 292 294 293 293 292 292 293 293 292 290 287 285 284 284 283 283 282 282 282 280 280 279 279 279 278 277 277 276 275 274 273 273 272 272 272 272 272
Wind_Speed
6 6 8 16 17 7 7 10 7 3 5 3 13 13 15 9 5 5 5 9 9 8 12 16 17 15 15 12 11 12 13 12 13 12 13 12 13 12 10 10 9 9 10 10
3 10 10 1 8 6 9 15 7 5 5 4 11 15 11 10 6 7 5 7 10 8 7 15 19 14 11 10 9 11 12 10 8 10 12 12 17 14 14 13 14 13 14 15
5 6 1 8 8 9 6 10 10 6 6 1 2 8 12 10 5 5 5 5 8 15 12 13 21 21 22 21 19 16 12 10 10 10 12 20 21 19 17 16 18 15 16 16
7 5 7 7 4 1 7 9 9 11 9 4 5 2 13 15 9 8 7 3 11 14 15 14 15 18 18 17 14 12 11 10 10 14 19 19 21 20 20 19 18 18 20 20
1 8 4 9 3 2 2 8 7 6 4 2 5 1 6 18 17 10 8 9 12 12 14 12 15 17 18 15 16 17 19 22 21 21 23 26 28 24 21 20 20 19 20 20
1 0 4 1 8 4 4 10 10 6 3 3 6 6 4 3 6 12 10 10 13 13 13 17 17 16 20 23 24 25 28 29 28 29 28 30 29 24 23 20 19 18 18 17
5 4 2 3 8 10 7 5 2 2 2 3 1 6 6 5 8 14 15 12 12 13 11 11 15 15 17 24 27 31 34 33 31 27 25 25 23 19 18 15 14 15 17 19
5 3 6 6 1 4 11 6 2 2 2 3 4 5 2 4 8 14 13 13 12 12 11 13 16 16 19 24 26 26 26 24 25 19 19 17 14 13 14 14 14 14 12 11
5 4 5 8 5 3 3 4 1 3 2 3 3 2 2 7 11 13 14 13 13 13 12 12 16 16 18 19 20 19 19 17 16 12 11 12 13 13 15 13 10 8 8 10
3 4 3 2 0 4 2 8 4 2 4 3 4 3 4 7 10 11 12 13 13 13 13 11 13 13 15 16 15 13 12 12 12 14 13 13 12 12 12 10 10 9 9 10
5 2 2 2 2 3 4 3 3 2 1 2 3 2 4 6 13 13 11 13 15 13 10 9 12 12 13 15 15 14 14 14 14 13 12 12 12 12 10 9 9 9 9 11
1 1 4 2 2 4 3 1 5 2 3 2 3 3 5 4 13 14 13 13 13 12 10 11 12 12 11 12 14 14 13 12 12 12 12 12 10 9 9 9 9 8 9 10
4 2 3 1 1 3 2 2 3 3 3 4 3 2 2 3 11 13 15 14 12 11 11 10 13 13 13 12 13 13 13 13 11 11 11 10 9 8 8 8 7 7 8 9
0 1 2 1 3 5 5 9 9 4 3 3 4 2 4 6 10 13 15 15 13 11 11 9 10 13 14 15 14 14 14 11 11 10 9 9 8 7 7 6 6 7 8 8
2 2 3 4 3 2 4 10 14 13 11 6 5 6 5 12 12 16 16 15 13 12 12 11 10 15 16 16 15 14 13 11 10 9 9 8 7 5 5 5 5 6 7 7
2 2 2 1 1 1 2 8 12 11 14 11 14 11 3 7 7 12 15 16 15 15 13 12 15 17 17 17 16 14 13 11 9 9 7 6 5 4 4 4 5 5 6 6
4 2 1 3 3 2 3 9 12 11 6 12 10 10 5 4 9 16 17 17 17 15 13 13 16 18 20 20 18 16 15 13 10 9 7 5 4 3 3 3 4 5 5 4
2 2 1 1 2 1 5 2 2 15 7 12 7 2 3 4 3 8 10 15 15 13 13 13 17 20 21 20 18 17 15 12 10 8 6 4 2 1 1 2 3 3 3 3
3 1 2 2 3 5 2 3 4 7 6 11 9 7 6 6 5 3 7 13 13 12 17 19 23 26 24 22 20 18 15 12 10 8 5 3 3 2 0 1 2 3 3 3
1 1 2 2 2 5 2 2 2 4 4 4 3 8 8 7 4 5 9 11 14 24 26 27 27 25 24 22 20 19 16 13 10 8 6 5 3 2 2 3 4 3 4 5
3 2 3 3 3 6 3 4 2 5 4 3 4 4 8 7 3 3 11 10 23 24 27 30 28 26 25 23 21 18 16 13 10 7 6 5 4 3 5 5 6 5 5 6
4 5 4 2 3 7 5 4 5 3 1 1 3 4 6 5 5 10 9 12 21 23 25 27 25 24 24 22 20 17 15 12 9 7 7 7 6 6 6 7 6 7 7 7
3 3 3 6 5 1 8 2 3 3 3 1 2 5 4 8 5 8 10 11 18 24 25 26 26 24 20 19 17 17 14 11 9 9 9 8 8 8 8 7 7 7 6 7
4 3 3 3 5 6 6 4 4 4 3 2 3 4 7 7 8 7 8 10 16 19 22 26 25 24 21 20 17 14 13 12 11 11 10 9 9 9 8 8 8 9 7 8
4 5 5 5 7 6 8 8 7 7 6 4 2 2 6 9 7 7 7 11 16 21 24 26 26 24 21 20 18 16 14 13 12 11 10 9 9 9 9 10 10 11 11 10
6 7 6 6 6 4 2 2 4 9 7 7 6 4 3 8 8 13 10 18 23 25 26 24 22 21 20 20 19 17 15 13 12 11 11 10 11 11 11 11 12 9 10 11
Wind_Direction
170 234 228 187 179 187 165 196 203 129 102 53 253 211 239 248 182 198 269 142 146 155 163 161 165 163 164 164 161 169 170 176 181 184 187 186 128 121 105 87 72 68 66 58
269 233 286 224 221 153 175 172 183 34 52 142 274 237 229 237 230 175 257 165 145 137 102 78 73 87 86 105 109 104 111 118 107 168 144 155 139 117 106 91 82 72 73 70
236 319 266 203 213 206 183 176 161 136 136 174 274 262 251 238 253 124 67 9 143 121 106 72 65 59 72 73 82 90 98 109 101 122 151 142 126 108 98 85 82 68 79 75
215 211 292 323 124 249 159 111 107 127 155 205 181 251 214 223 210 149 125 292 107 103 92 85 76 64 71 79 90 89 95 101 103 126 128 123 99 84 88 90 81 71 70 67
191 165 209 214 64 71 14 132 138 136 108 68 170 245 288 191 207 153 138 109 97 97 100 94 86 83 82 89 90 99 99 92 96 103 109 103 92 93 89 80 76 65 57 56
107 294 147 106 155 133 117 75 60 55 76 193 181 192 262 178 173 136 103 92 100 99 97 99 95 93 90 93 93 100 100 93 93 96 97 100 98 94 86 72 55 42 33 32
200 183 103 116 124 170 165 114 90 126 153 190 54 175 241 54 69 145 136 121 111 109 106 110 97 92 91 96 94 97 97 94 91 84 85 86 84 80 79 69 57 41 30 26
179 200 164 162 131 182 186 151 104 171 169 140 347 212 230 63 75 111 116 120 113 113 118 104 106 103 96 97 103 102 97 92 89 90 88 81 76 73 70 60 51 41 35 19
167 151 40 23 49 331 149 145 70 99 125 107 196 268 170 113 105 117 128 136 128 125 124 124 124 115 111 109 109 109 104 96 92 91 84 77 76 75 68 64 67 61 40 28
328 120 5 75 157 38 31 147 86 25 145 213 192 197 218 176 147 138 146 142 134 132 131 127 118 109 117 120 120 120 116 113 107 100 100 101 95 85 81 78 66 49 39 38
317 351 80 148 241 154 127 147 73 72 117 205 135 236 351 202 163 156 157 149 144 143 129 124 119 124 130 130 129 117 110 114 113 110 109 103 95 89 83 72 64 54 42 42
232 356 127 72 339 15 354 146 165 162 190 260 106 269 335 2 151 153 156 151 141 137 136 134 138 139 142 146 142 134 122 118 115 114 106 94 88 82 78 69 58 53 54 53
167 294 104 72 4 39 238 215 328 33 61 201 121 257 316 18 141 156 146 147 146 141 140 147 153 159 158 154 140 136 126 120 118 114 108 101 93 82 70 62 58 63 58 57
82 193 358 63 31 115 175 203 203 188 171 147 213 176 187 188 162 159 156 157 153 156 160 165 168 164 160 148 139 132 124 126 123 119 113 104 92 81 77 69 62 55 52 50
64 215 211 112 3 177 195 199 192 208 216 205 184 230 203 189 192 176 161 154 155 165 174 177 169 151 143 139 139 137 133 136 135 130 121 109 97 88 79 66 61 57 55 50
106 295 195 53 44 250 306 194 208 218 225 257 272 263 235 165 163 146 163 164 175 180 181 175 160 146 147 149 151 150 143 143 150 139 127 120 113 99 78 69 61 54 53 50
165 160 128 178 348 323 336 215 196 207 215 218 231 242 162 168 183 177 174 175 183 183 178 174 157 155 152 159 163 160 159 157 155 145 138 140 114 102 86 74 54 39 36 39
149 126 336 89 21 295 244 67 192 204 211 220 244 98 157 184 188 154 171 174 185 180 171 160 148 147 156 161 166 164 161 159 158 156 154 134 121 137 89 46 30 15 18 27
120 177 131 146 210 297 322 187 174 175 266 220 214 204 166 118 81 76 156 169 175 169 162 154 155 163 164 167 169 164 161 164 168 167 162 167 184 189 319 323 343 335 341 315
67 14 52 109 209 214 237 115 328 117 288 357 348 195 150 124 163 227 172 158 157 155 153 149 162 166 166 170 171 167 165 172 180 181 184 197 206 218 242 283 295 307 295 302
165 136 181 206 255 289 195 148 296 94 231 15 0 334 160 184 182 230 138 132 144 144 143 156 163 161 170 171 173 169 169 180 189 189 201 216 232 242 260 275 283 285 293 301
173 153 173 180 219 265 140 52 166 188 88 78 301 282 260 128 101 131 118 128 132 134 141 152 150 159 169 172 174 171 177 186 190 199 213 230 238 242 257 270 273 277 287 297
257 205 183 183 211 268 200 138 143 129 138 156 307 301 118 130 129 134 137 136 141 144 149 157 153 158 165 172 182 176 184 191 201 214 225 229 238 250 261 269 272 276 272 287
245 154 217 40 248 213 224 269 158 158 186 174 221 267 157 148 147 137 135 139 141 143 144 156 161 165 167 176 180 191 193 201 208 216 219 230 242 253 265 265 265 266 266 273
205 131 193 262 281 280 250 224 198 198 173 173 165 187 158 138 148 139 135 130 133 142 160 174 175 174 176 180 187 194 200 204 209 216 225 235 249 256 258 264 263 268 270 275
185 190 180 216 225 179 190 332 208 165 184 186 159 135 102 135 135 128 136 149 158 168 175 177 182 182 182 187 193 199 204 209 215 222 230 237 243 249 258 263 268 262 277 277